Year,Month,Day,Hour,Minute,Value (Times are PST for temperature in C)
2008,04,13,00,00,11.30
2008,04,13,00,01,11.20
2008,04,13,00,02,11.20
2008,04,13,00,03,11.20
2008,04,13,00,04,11.20
2008,04,13,00,05,11.20
2008,04,13,00,06,11.20
2008,04,13,00,07,11.20
2008,04,13,00,08,11.20
2008,04,13,00,09,11.20
2008,04,13,00,10,11.20
2008,04,13,00,11,11.20
2008,04,13,00,12,11.20
2008,04,13,00,13,11.20
2008,04,13,00,14,11.20
2008,04,13,00,15,11.20
2008,04,13,00,16,11.20
2008,04,13,00,17,11.20
2008,04,13,00,18,11.20
2008,04,13,00,19,11.20
2008,04,13,00,20,11.20
2008,04,13,00,21,11.20
2008,04,13,00,22,11.20
2008,04,13,00,23,11.20
2008,04,13,00,24,11.20
2008,04,13,00,25,11.10
2008,04,13,00,26,11.10
2008,04,13,00,27,11.10
2008,04,13,00,28,11.00
2008,04,13,00,29,11.00
2008,04,13,00,30,11.00
2008,04,13,00,31,10.90
2008,04,13,00,32,10.90
2008,04,13,00,33,10.90
2008,04,13,00,34,10.90
2008,04,13,00,35,10.90
2008,04,13,00,36,10.80
2008,04,13,00,37,10.80
2008,04,13,00,38,10.80
2008,04,13,00,39,10.80
2008,04,13,00,40,10.80
2008,04,13,00,41,10.80
2008,04,13,00,42,10.80
2008,04,13,00,43,10.80
2008,04,13,00,44,10.80
2008,04,13,00,45,10.80
2008,04,13,00,46,10.80
2008,04,13,00,47,10.80
2008,04,13,00,48,10.70
2008,04,13,00,49,10.70
2008,04,13,00,50,10.70
2008,04,13,00,51,10.70
2008,04,13,00,52,10.70
2008,04,13,00,53,10.70
2008,04,13,00,54,10.70
2008,04,13,00,55,10.70
2008,04,13,00,56,10.70
2008,04,13,00,57,10.70
2008,04,13,00,58,10.70
2008,04,13,00,59,10.70
2008,04,13,01,00,10.70
2008,04,13,01,01,10.70
2008,04,13,01,02,10.70
2008,04,13,01,03,10.70
2008,04,13,01,04,10.70
2008,04,13,01,05,10.70
2008,04,13,01,06,10.70
2008,04,13,01,07,10.70
2008,04,13,01,08,10.70
2008,04,13,01,09,10.70
2008,04,13,01,10,10.70
2008,04,13,01,11,10.70
2008,04,13,01,12,10.70
2008,04,13,01,13,10.60
2008,04,13,01,14,10.60
2008,04,13,01,15,10.60
2008,04,13,01,16,10.60
2008,04,13,01,17,10.60
2008,04,13,01,18,10.50
2008,04,13,01,19,10.50
2008,04,13,01,20,10.50
2008,04,13,01,21,10.50
2008,04,13,01,22,10.50
2008,04,13,01,23,10.40
2008,04,13,01,24,10.40
2008,04,13,01,25,10.40
2008,04,13,01,26,10.40
2008,04,13,01,27,10.40
2008,04,13,01,28,10.40
2008,04,13,01,29,10.30
2008,04,13,01,30,10.30
2008,04,13,01,31,10.30
2008,04,13,01,32,10.30
2008,04,13,01,33,10.30
2008,04,13,01,34,10.20
2008,04,13,01,35,10.20
2008,04,13,01,36,10.20
2008,04,13,01,37,10.20
2008,04,13,01,38,10.20
2008,04,13,01,39,10.10
2008,04,13,01,40,10.10
2008,04,13,01,41,10.10
2008,04,13,01,42,10.10
2008,04,13,01,43,10.10
2008,04,13,01,44,10.10
2008,04,13,01,45,10.10
2008,04,13,01,46,10.10
2008,04,13,01,47,10.00
2008,04,13,01,48,10.00
2008,04,13,01,49,10.00
2008,04,13,01,50,9.90
2008,04,13,01,51,9.90
2008,04,13,01,52,9.90
2008,04,13,01,53,9.90
2008,04,13,01,54,9.90
2008,04,13,01,55,9.90
2008,04,13,01,56,9.90
2008,04,13,01,57,9.90
2008,04,13,01,58,9.90
2008,04,13,01,59,9.90
2008,04,13,02,00,9.80
2008,04,13,02,01,9.80
2008,04,13,02,02,9.80
2008,04,13,02,03,9.80
2008,04,13,02,04,9.80
2008,04,13,02,05,9.80
2008,04,13,02,06,9.80
2008,04,13,02,07,9.70
2008,04,13,02,08,9.70
2008,04,13,02,09,9.70
2008,04,13,02,10,9.70
2008,04,13,02,11,9.70
2008,04,13,02,12,9.70
2008,04,13,02,13,9.70
2008,04,13,02,14,9.70
2008,04,13,02,15,9.70
2008,04,13,02,16,9.60
2008,04,13,02,17,9.60
2008,04,13,02,18,9.60
2008,04,13,02,19,9.60
2008,04,13,02,20,9.60
2008,04,13,02,21,9.60
2008,04,13,02,22,9.60
2008,04,13,02,23,9.60
2008,04,13,02,24,9.60
2008,04,13,02,25,9.60
2008,04,13,02,26,9.60
2008,04,13,02,27,9.60
2008,04,13,02,28,9.60
2008,04,13,02,29,9.60
2008,04,13,02,30,9.70
2008,04,13,02,31,9.60
2008,04,13,02,32,9.70
2008,04,13,02,33,9.60
2008,04,13,02,34,9.60
2008,04,13,02,35,9.60
2008,04,13,02,36,9.50
2008,04,13,02,37,9.50
2008,04,13,02,38,9.50
2008,04,13,02,39,9.40
2008,04,13,02,40,9.40
2008,04,13,02,41,9.40
2008,04,13,02,42,9.40
2008,04,13,02,43,9.40
2008,04,13,02,44,9.40
2008,04,13,02,45,9.40
2008,04,13,02,46,9.50
2008,04,13,02,47,9.50
2008,04,13,02,48,9.50
2008,04,13,02,49,9.40
2008,04,13,02,50,9.40
2008,04,13,02,51,9.40
2008,04,13,02,52,9.40
2008,04,13,02,53,9.30
2008,04,13,02,54,9.30
2008,04,13,02,55,9.30
2008,04,13,02,56,9.30
2008,04,13,02,57,9.30
2008,04,13,02,58,9.20
2008,04,13,02,59,9.20
2008,04,13,03,00,9.20
2008,04,13,03,01,9.20
2008,04,13,03,02,9.20
2008,04,13,03,03,9.20
2008,04,13,03,04,9.20
2008,04,13,03,05,9.10
2008,04,13,03,06,9.10
2008,04,13,03,07,9.10
2008,04,13,03,08,9.10
2008,04,13,03,09,9.10
2008,04,13,03,10,9.10
2008,04,13,03,11,9.00
2008,04,13,03,12,9.00
2008,04,13,03,13,9.00
2008,04,13,03,14,9.00
2008,04,13,03,15,9.00
2008,04,13,03,16,9.00
2008,04,13,03,17,8.90
2008,04,13,03,18,8.90
2008,04,13,03,19,8.90
2008,04,13,03,20,8.90
2008,04,13,03,21,8.90
2008,04,13,03,22,8.90
2008,04,13,03,23,8.90
2008,04,13,03,24,8.90
2008,04,13,03,25,8.90
2008,04,13,03,26,8.90
2008,04,13,03,27,8.90
2008,04,13,03,28,8.90
2008,04,13,03,29,8.90
2008,04,13,03,30,8.90
2008,04,13,03,31,8.90
2008,04,13,03,32,8.90
2008,04,13,03,33,8.90
2008,04,13,03,34,8.90
2008,04,13,03,35,8.90
2008,04,13,03,36,8.90
2008,04,13,03,37,8.90
2008,04,13,03,38,8.90
2008,04,13,03,39,8.90
2008,04,13,03,40,8.90
2008,04,13,03,41,8.90
2008,04,13,03,42,8.90
2008,04,13,03,43,8.90
2008,04,13,03,44,8.90
2008,04,13,03,45,8.90
2008,04,13,03,46,8.90
2008,04,13,03,47,8.90
2008,04,13,03,48,8.90
2008,04,13,03,49,8.90
2008,04,13,03,50,8.90
2008,04,13,03,51,8.90
2008,04,13,03,52,8.90
2008,04,13,03,53,8.90
2008,04,13,03,54,8.90
2008,04,13,03,55,8.90
2008,04,13,03,56,8.90
2008,04,13,03,57,8.90
2008,04,13,03,58,8.90
2008,04,13,03,59,8.90
2008,04,13,04,00,8.80
2008,04,13,04,01,8.80
2008,04,13,04,02,8.80
2008,04,13,04,03,8.70
2008,04,13,04,04,8.70
2008,04,13,04,05,8.70
2008,04,13,04,06,8.70
2008,04,13,04,07,8.70
2008,04,13,04,08,8.60
2008,04,13,04,09,8.60
2008,04,13,04,10,8.50
2008,04,13,04,11,8.50
2008,04,13,04,12,8.40
2008,04,13,04,13,8.40
2008,04,13,04,14,8.40
2008,04,13,04,15,8.30
2008,04,13,04,16,8.30
2008,04,13,04,17,8.30
2008,04,13,04,18,8.20
2008,04,13,04,19,8.20
2008,04,13,04,20,8.20
2008,04,13,04,21,8.20
2008,04,13,04,22,8.10
2008,04,13,04,23,8.10
2008,04,13,04,24,8.00
2008,04,13,04,25,7.90
2008,04,13,04,26,7.80
2008,04,13,04,27,7.70
2008,04,13,04,28,7.70
2008,04,13,04,29,7.70
2008,04,13,04,30,7.70
2008,04,13,04,31,7.60
2008,04,13,04,32,7.60
2008,04,13,04,33,7.50
2008,04,13,04,34,7.40
2008,04,13,04,35,7.40
2008,04,13,04,36,7.30
2008,04,13,04,37,7.30
2008,04,13,04,38,7.30
2008,04,13,04,39,7.20
2008,04,13,04,40,7.20
2008,04,13,04,41,7.10
2008,04,13,04,42,6.90
2008,04,13,04,43,6.80
2008,04,13,04,44,6.80
2008,04,13,04,45,6.70
2008,04,13,04,46,6.70
2008,04,13,04,47,6.60
2008,04,13,04,48,6.50
2008,04,13,04,49,6.50
2008,04,13,04,50,6.50
2008,04,13,04,51,6.40
2008,04,13,04,52,6.40
2008,04,13,04,53,6.30
2008,04,13,04,54,6.30
2008,04,13,04,55,6.20
2008,04,13,04,56,6.10
2008,04,13,04,57,6.10
2008,04,13,04,58,6.00
2008,04,13,04,59,6.00
2008,04,13,05,00,6.00
2008,04,13,05,01,6.00
2008,04,13,05,02,5.90
2008,04,13,05,03,5.90
2008,04,13,05,04,5.90
2008,04,13,05,05,5.90
2008,04,13,05,06,5.90
2008,04,13,05,07,5.80
2008,04,13,05,08,5.80
2008,04,13,05,09,5.70
2008,04,13,05,10,5.60
2008,04,13,05,11,5.60
2008,04,13,05,12,5.50
2008,04,13,05,13,5.50
2008,04,13,05,14,5.50
2008,04,13,05,15,5.50
2008,04,13,05,16,5.40
2008,04,13,05,17,5.40
2008,04,13,05,18,5.40
2008,04,13,05,19,5.40
2008,04,13,05,20,5.30
2008,04,13,05,21,5.30
2008,04,13,05,22,5.30
2008,04,13,05,23,5.30
2008,04,13,05,24,5.40
2008,04,13,05,25,5.40
2008,04,13,05,26,5.30
2008,04,13,05,27,5.30
2008,04,13,05,28,5.30
2008,04,13,05,29,5.30
2008,04,13,05,30,5.30
2008,04,13,05,31,5.30
2008,04,13,05,32,5.30
2008,04,13,05,33,5.30
2008,04,13,05,34,5.20
2008,04,13,05,35,5.20
2008,04,13,05,36,5.20
2008,04,13,05,37,5.20
2008,04,13,05,38,5.20
2008,04,13,05,39,5.20
2008,04,13,05,40,5.10
2008,04,13,05,41,5.00
2008,04,13,05,42,4.90
2008,04,13,05,43,4.80
2008,04,13,05,44,4.70
2008,04,13,05,45,4.60
2008,04,13,05,46,4.60
2008,04,13,05,47,4.50
2008,04,13,05,48,4.50
2008,04,13,05,49,4.50
2008,04,13,05,50,4.50
2008,04,13,05,51,4.50
2008,04,13,05,52,4.50
2008,04,13,05,53,4.60
2008,04,13,05,54,4.50
2008,04,13,05,55,4.50
2008,04,13,05,56,4.60
2008,04,13,05,57,4.60
2008,04,13,05,58,4.60
2008,04,13,05,59,4.60
2008,04,13,06,00,4.60
2008,04,13,06,01,4.50
2008,04,13,06,02,4.50
2008,04,13,06,03,4.50
2008,04,13,06,04,4.40
2008,04,13,06,05,4.40
2008,04,13,06,06,4.40
2008,04,13,06,07,4.40
2008,04,13,06,08,4.40
2008,04,13,06,09,4.40
2008,04,13,06,10,4.40
2008,04,13,06,11,4.40
2008,04,13,06,12,4.50
2008,04,13,06,13,4.50
2008,04,13,06,14,4.60
2008,04,13,06,15,4.60
2008,04,13,06,16,4.50
2008,04,13,06,17,4.50
2008,04,13,06,18,4.40
2008,04,13,06,19,4.30
2008,04,13,06,20,4.20
2008,04,13,06,21,4.20
2008,04,13,06,22,4.10
2008,04,13,06,23,4.10
2008,04,13,06,24,4.10
2008,04,13,06,25,4.10
2008,04,13,06,26,4.20
2008,04,13,06,27,4.20
2008,04,13,06,28,4.30
2008,04,13,06,29,4.30
2008,04,13,06,30,4.30
2008,04,13,06,31,4.30
2008,04,13,06,32,4.30
2008,04,13,06,33,4.30
2008,04,13,06,34,4.20
2008,04,13,06,35,4.20
2008,04,13,06,36,4.10
2008,04,13,06,37,4.10
2008,04,13,06,38,4.10
2008,04,13,06,39,4.10
2008,04,13,06,40,4.00
2008,04,13,06,41,4.00
2008,04,13,06,42,3.90
2008,04,13,06,43,3.90
2008,04,13,06,44,3.90
2008,04,13,06,45,3.90
2008,04,13,06,46,3.90
2008,04,13,06,47,3.90
2008,04,13,06,48,3.90
2008,04,13,06,49,3.90
2008,04,13,06,50,3.90
2008,04,13,06,51,3.90
2008,04,13,06,52,3.90
2008,04,13,06,53,3.90
2008,04,13,06,54,4.00
2008,04,13,06,55,4.00
2008,04,13,06,56,4.00
2008,04,13,06,57,4.00
2008,04,13,06,58,4.00
2008,04,13,06,59,4.00
2008,04,13,07,00,4.00
2008,04,13,07,01,4.00
2008,04,13,07,02,4.00
2008,04,13,07,03,4.10
2008,04,13,07,04,4.10
2008,04,13,07,05,4.10
2008,04,13,07,06,4.10
2008,04,13,07,07,4.10
2008,04,13,07,08,4.20
2008,04,13,07,09,4.20
2008,04,13,07,10,4.20
2008,04,13,07,11,4.30
2008,04,13,07,12,4.30
2008,04,13,07,13,4.30
2008,04,13,07,14,4.30
2008,04,13,07,15,4.40
2008,04,13,07,16,4.40
2008,04,13,07,17,4.40
2008,04,13,07,18,4.40
2008,04,13,07,19,4.50
2008,04,13,07,20,4.50
2008,04,13,07,21,4.50
2008,04,13,07,22,4.60
2008,04,13,07,23,4.60
2008,04,13,07,24,4.60
2008,04,13,07,25,4.70
2008,04,13,07,26,4.70
2008,04,13,07,27,4.70
2008,04,13,07,28,4.70
2008,04,13,07,29,4.70
2008,04,13,07,30,4.70
2008,04,13,07,31,4.70
2008,04,13,07,32,4.70
2008,04,13,07,33,4.70
2008,04,13,07,34,4.70
2008,04,13,07,35,4.70
2008,04,13,07,36,4.70
2008,04,13,07,37,4.70
2008,04,13,07,38,4.80
2008,04,13,07,39,4.80
2008,04,13,07,40,4.80
2008,04,13,07,41,4.80
2008,04,13,07,42,4.90
2008,04,13,07,43,4.90
2008,04,13,07,44,5.00
2008,04,13,07,45,5.00
2008,04,13,07,46,5.10
2008,04,13,07,47,5.10
2008,04,13,07,48,5.10
2008,04,13,07,49,5.20
2008,04,13,07,50,5.20
2008,04,13,07,51,5.30
2008,04,13,07,52,5.40
2008,04,13,07,53,5.40
2008,04,13,07,54,5.50
2008,04,13,07,55,5.50
2008,04,13,07,56,5.60
2008,04,13,07,57,5.60
2008,04,13,07,58,5.70
2008,04,13,07,59,5.70
2008,04,13,08,00,5.80
2008,04,13,08,01,5.90
2008,04,13,08,02,5.90
2008,04,13,08,03,6.00
2008,04,13,08,04,6.00
2008,04,13,08,05,6.10
2008,04,13,08,06,6.10
2008,04,13,08,07,6.20
2008,04,13,08,08,6.30
2008,04,13,08,09,6.30
2008,04,13,08,10,6.40
2008,04,13,08,11,6.50
2008,04,13,08,12,6.60
2008,04,13,08,13,6.80
2008,04,13,08,14,7.00
2008,04,13,08,15,7.10
2008,04,13,08,16,7.20
2008,04,13,08,17,7.20
2008,04,13,08,18,7.20
2008,04,13,08,19,7.30
2008,04,13,08,20,7.40
2008,04,13,08,21,7.60
2008,04,13,08,22,7.70
2008,04,13,08,23,7.90
2008,04,13,08,24,8.10
2008,04,13,08,25,8.20
2008,04,13,08,26,8.30
2008,04,13,08,27,8.30
2008,04,13,08,28,8.40
2008,04,13,08,29,8.40
2008,04,13,08,30,8.50
2008,04,13,08,31,8.60
2008,04,13,08,32,8.60
2008,04,13,08,33,8.70
2008,04,13,08,34,8.80
2008,04,13,08,35,8.80
2008,04,13,08,36,8.90
2008,04,13,08,37,8.90
2008,04,13,08,38,9.00
2008,04,13,08,39,9.00
2008,04,13,08,40,9.10
2008,04,13,08,41,9.10
2008,04,13,08,42,9.20
2008,04,13,08,43,9.20
2008,04,13,08,44,9.20
2008,04,13,08,45,9.30
2008,04,13,08,46,9.30
2008,04,13,08,47,9.40
2008,04,13,08,48,9.40
2008,04,13,08,49,9.50
2008,04,13,08,50,9.50
2008,04,13,08,51,9.60
2008,04,13,08,52,9.60
2008,04,13,08,53,9.60
2008,04,13,08,54,9.60
2008,04,13,08,55,9.60
2008,04,13,08,56,9.70
2008,04,13,08,57,9.60
2008,04,13,08,58,9.60
2008,04,13,08,59,9.60
2008,04,13,09,00,9.60
2008,04,13,09,01,9.60
2008,04,13,09,02,9.60
2008,04,13,09,03,9.60
2008,04,13,09,04,9.60
2008,04,13,09,05,9.60
2008,04,13,09,06,9.60
2008,04,13,09,07,9.60
2008,04,13,09,08,9.70
2008,04,13,09,09,9.70
2008,04,13,09,10,9.80
2008,04,13,09,11,9.90
2008,04,13,09,12,10.00
2008,04,13,09,13,10.00
2008,04,13,09,14,10.10
2008,04,13,09,15,10.00
2008,04,13,09,16,10.00
2008,04,13,09,17,9.90
2008,04,13,09,18,9.90
2008,04,13,09,19,9.80
2008,04,13,09,20,9.80
2008,04,13,09,21,9.80
2008,04,13,09,22,9.80
2008,04,13,09,23,9.70
2008,04,13,09,24,9.70
2008,04,13,09,25,9.60
2008,04,13,09,26,9.60
2008,04,13,09,27,9.60
2008,04,13,09,28,9.60
2008,04,13,09,29,9.70
2008,04,13,09,30,9.70
2008,04,13,09,31,9.80
2008,04,13,09,32,9.80
2008,04,13,09,33,9.80
2008,04,13,09,34,9.90
2008,04,13,09,35,9.90
2008,04,13,09,36,9.90
2008,04,13,09,37,9.80
2008,04,13,09,38,9.70
2008,04,13,09,39,9.60
2008,04,13,09,40,9.60
2008,04,13,09,41,9.50
2008,04,13,09,42,9.40
2008,04,13,09,43,9.40
2008,04,13,09,44,9.40
2008,04,13,09,45,9.30
2008,04,13,09,46,9.30
2008,04,13,09,47,9.30
2008,04,13,09,48,9.40
2008,04,13,09,49,9.40
2008,04,13,09,50,9.40
2008,04,13,09,51,9.40
2008,04,13,09,52,9.40
2008,04,13,09,53,9.40
2008,04,13,09,54,9.40
2008,04,13,09,55,9.50
2008,04,13,09,56,9.60
2008,04,13,09,57,9.60
2008,04,13,09,58,9.60
2008,04,13,09,59,9.70
2008,04,13,10,00,9.80
2008,04,13,10,01,9.90
2008,04,13,10,02,10.00
2008,04,13,10,03,10.10
2008,04,13,10,04,10.00
2008,04,13,10,05,10.10
2008,04,13,10,06,10.00
2008,04,13,10,07,10.00
2008,04,13,10,08,9.90
2008,04,13,10,09,9.90
2008,04,13,10,10,9.90
2008,04,13,10,11,9.90
2008,04,13,10,12,9.80
2008,04,13,10,13,9.80
2008,04,13,10,14,9.80
2008,04,13,10,15,9.90
2008,04,13,10,16,9.90
2008,04,13,10,17,9.90
2008,04,13,10,18,10.00
2008,04,13,10,19,10.10
2008,04,13,10,20,10.20
2008,04,13,10,21,10.20
2008,04,13,10,22,10.30
2008,04,13,10,23,10.40
2008,04,13,10,24,10.50
2008,04,13,10,25,10.40
2008,04,13,10,26,10.30
2008,04,13,10,27,10.20
2008,04,13,10,28,10.10
2008,04,13,10,29,10.00
2008,04,13,10,30,9.90
2008,04,13,10,31,9.80
2008,04,13,10,32,9.80
2008,04,13,10,33,9.80
2008,04,13,10,34,9.80
2008,04,13,10,35,9.80
2008,04,13,10,36,9.80
2008,04,13,10,37,9.80
2008,04,13,10,38,9.80
2008,04,13,10,39,9.80
2008,04,13,10,40,9.80
2008,04,13,10,41,9.80
2008,04,13,10,42,9.80
2008,04,13,10,43,9.80
2008,04,13,15,50,12.70
2008,04,13,15,51,12.70
2008,04,13,15,52,12.70
2008,04,13,15,53,12.70
2008,04,13,15,54,12.60
2008,04,13,15,55,12.60
2008,04,13,15,56,12.60
2008,04,13,15,57,12.60
2008,04,13,15,58,12.60
2008,04,13,15,59,12.60
2008,04,13,16,00,12.70
2008,04,13,16,01,12.70
2008,04,13,16,02,12.80
2008,04,13,16,03,12.80
2008,04,13,16,04,12.80
2008,04,13,16,05,12.70
2008,04,13,16,06,12.70
2008,04,13,16,07,12.60
2008,04,13,16,08,12.60
2008,04,13,16,09,12.60
2008,04,13,16,10,12.60
2008,04,13,16,11,12.60
2008,04,13,16,12,12.60
2008,04,13,16,13,12.50
2008,04,13,16,14,12.40
2008,04,13,16,15,12.40
2008,04,13,16,16,12.30
2008,04,13,16,17,12.40
2008,04,13,16,18,12.40
2008,04,13,16,19,12.40
2008,04,13,16,20,12.50
2008,04,13,16,21,12.50
2008,04,13,16,22,12.60
2008,04,13,16,23,12.60
2008,04,13,16,24,12.50
2008,04,13,16,25,12.50
2008,04,13,16,26,12.50
2008,04,13,16,27,12.60
2008,04,13,16,28,12.60
2008,04,13,16,29,12.70
2008,04,13,16,30,12.70
2008,04,13,16,31,12.70
2008,04,13,16,32,12.70
2008,04,13,16,33,12.60
2008,04,13,16,34,12.60
2008,04,13,16,35,12.60
2008,04,13,16,36,12.60
2008,04,13,16,37,12.60
2008,04,13,16,38,12.60
2008,04,13,16,39,12.60
2008,04,13,16,40,12.60
2008,04,13,16,41,12.60
2008,04,13,16,42,12.60
2008,04,13,16,43,12.60
2008,04,13,16,44,12.60
2008,04,13,16,45,12.60
2008,04,13,16,46,12.70
2008,04,13,16,47,12.80
2008,04,13,16,48,12.90
2008,04,13,16,49,12.90
2008,04,13,16,50,13.00
2008,04,13,16,51,13.10
2008,04,13,16,52,13.20
2008,04,13,16,53,13.10
2008,04,13,16,54,13.10
2008,04,13,16,55,13.10
2008,04,13,16,56,13.10
2008,04,13,16,57,13.20
2008,04,13,16,58,13.30
2008,04,13,16,59,13.30
2008,04,13,17,00,13.40
2008,04,13,17,01,13.50
2008,04,13,17,02,13.50
2008,04,13,17,03,13.50
2008,04,13,17,04,13.40
2008,04,13,17,05,13.30
2008,04,13,17,06,13.20
2008,04,13,17,07,13.00
2008,04,13,17,08,12.90
2008,04,13,17,09,12.90
2008,04,13,17,10,12.90
2008,04,13,17,11,12.90
2008,04,13,17,12,13.00
2008,04,13,17,13,13.00
2008,04,13,17,14,13.10
2008,04,13,17,15,13.10
2008,04,13,17,16,13.10
2008,04,13,17,17,13.00
2008,04,13,17,18,12.90
2008,04,13,17,19,12.80
2008,04,13,17,20,12.70
2008,04,13,17,21,12.50
2008,04,13,17,22,12.30
2008,04,13,17,23,12.10
2008,04,13,17,24,12.00
2008,04,13,17,25,11.80
2008,04,13,17,26,11.70
2008,04,13,17,27,11.60
2008,04,13,17,28,11.60
2008,04,13,17,29,11.60
2008,04,13,17,30,11.60
2008,04,13,17,31,11.50
2008,04,13,17,32,11.50
2008,04,13,17,33,11.60
2008,04,13,17,34,11.60
2008,04,13,17,35,11.60
2008,04,13,17,36,11.50
2008,04,13,17,37,11.50
2008,04,13,17,38,11.40
2008,04,13,17,39,11.40
2008,04,13,17,40,11.40
2008,04,13,17,41,11.40
2008,04,13,17,42,11.40
2008,04,13,17,43,11.40
2008,04,13,17,44,11.40
2008,04,13,17,45,11.40
2008,04,13,17,46,11.40
2008,04,13,17,47,11.40
2008,04,13,17,48,11.40
2008,04,13,17,49,11.40
2008,04,13,17,50,11.40
2008,04,13,17,51,11.40
2008,04,13,17,52,11.40
2008,04,13,17,53,11.40
2008,04,13,17,54,11.40
2008,04,13,17,55,11.40
2008,04,13,17,56,11.40
2008,04,13,17,57,11.50
2008,04,13,17,58,11.50
2008,04,13,17,59,11.50
2008,04,13,18,00,11.50
2008,04,13,18,01,11.60
2008,04,13,18,02,11.60
2008,04,13,18,03,11.60
2008,04,13,18,04,11.70
2008,04,13,18,05,11.70
2008,04,13,18,06,11.80
2008,04,13,18,07,11.80
2008,04,13,18,08,11.90
2008,04,13,18,09,11.90
2008,04,13,18,10,11.90
2008,04,13,18,11,11.90
2008,04,13,18,12,11.90
2008,04,13,18,13,11.90
2008,04,13,18,14,12.00
2008,04,13,18,15,12.00
2008,04,13,18,16,12.10
2008,04,13,18,17,12.00
2008,04,13,18,18,12.00
2008,04,13,18,19,12.00
2008,04,13,18,20,12.00
2008,04,13,18,21,11.90
2008,04,13,18,22,11.80
2008,04,13,18,23,11.70
2008,04,13,18,24,11.60
2008,04,13,18,25,11.50
2008,04,13,18,26,11.50
2008,04,13,18,27,11.40
2008,04,13,18,28,11.40
2008,04,13,18,29,11.40
2008,04,13,18,30,11.40
2008,04,13,18,31,11.40
2008,04,13,18,32,11.30
2008,04,13,18,33,11.30
2008,04,13,18,34,11.20
2008,04,13,18,35,11.20
2008,04,13,18,36,11.20
2008,04,13,18,37,11.20
2008,04,13,18,38,11.30
2008,04,13,18,39,11.30
2008,04,13,18,40,11.30
2008,04,13,18,41,11.30
2008,04,13,18,42,11.30
2008,04,13,18,43,11.30
2008,04,13,18,44,11.40
2008,04,13,18,45,11.40
2008,04,13,18,46,11.40
2008,04,13,18,47,11.40
2008,04,13,18,48,11.40
2008,04,13,18,49,11.40
2008,04,13,18,50,11.40
2008,04,13,18,51,11.50
2008,04,13,18,52,11.50
2008,04,13,18,53,11.60
2008,04,13,18,54,11.60
2008,04,13,18,55,11.60
2008,04,13,18,56,11.60
2008,04,13,18,57,11.60
2008,04,13,18,58,11.60
2008,04,13,18,59,11.60
2008,04,13,19,00,11.60
2008,04,13,19,01,11.60
2008,04,13,19,02,11.60
2008,04,13,19,03,11.60
2008,04,13,19,04,11.60
2008,04,13,19,05,11.60
2008,04,13,19,06,11.60
2008,04,13,19,07,11.60
2008,04,13,19,08,11.60
2008,04,13,19,09,11.60
2008,04,13,19,10,11.60
2008,04,13,19,11,11.50
2008,04,13,19,12,11.50
2008,04,13,19,13,11.40
2008,04,13,19,14,11.40
2008,04,13,19,15,11.30
2008,04,13,19,16,11.30
2008,04,13,19,17,11.20
2008,04,13,19,18,11.20
2008,04,13,19,19,11.10
2008,04,13,19,20,11.00
2008,04,13,19,21,10.90
2008,04,13,19,22,10.80
2008,04,13,19,23,10.70
2008,04,13,19,24,10.60
2008,04,13,19,25,10.60
2008,04,13,19,26,10.50
2008,04,13,19,27,10.40
2008,04,13,19,28,10.40
2008,04,13,19,29,10.30
2008,04,13,19,30,10.20
2008,04,13,19,31,10.10
2008,04,13,19,32,10.10
2008,04,13,19,33,10.00
2008,04,13,19,34,9.90
2008,04,13,19,35,9.80
2008,04,13,19,36,9.70
2008,04,13,19,37,9.60
2008,04,13,19,38,9.60
2008,04,13,19,39,9.50
2008,04,13,19,40,9.50
2008,04,13,19,41,9.40
2008,04,13,19,42,9.40
2008,04,13,19,43,9.40
2008,04,13,19,44,9.30
2008,04,13,19,45,9.20
2008,04,13,19,46,9.20
2008,04,13,19,47,9.10
2008,04,13,19,48,9.10
2008,04,13,19,49,9.10
2008,04,13,19,50,9.00
2008,04,13,19,51,9.00
2008,04,13,19,52,8.90
2008,04,13,19,53,8.90
2008,04,13,19,54,8.80
2008,04,13,19,55,8.80
2008,04,13,19,56,8.80
2008,04,13,19,57,8.80
2008,04,13,19,58,8.80
2008,04,13,19,59,8.70
2008,04,13,20,00,8.70
2008,04,13,20,01,8.70
2008,04,13,20,02,8.70
2008,04,13,20,03,8.60
2008,04,13,20,04,8.60
2008,04,13,20,05,8.50
2008,04,13,20,06,8.40
2008,04,13,20,07,8.30
2008,04,13,20,08,8.30
2008,04,13,20,09,8.20
2008,04,13,20,10,8.20
2008,04,13,20,11,8.10
2008,04,13,20,12,8.10
2008,04,13,20,13,8.00
2008,04,13,20,14,8.00
2008,04,13,20,15,8.00
2008,04,13,20,16,7.90
2008,04,13,20,17,7.90
2008,04,13,20,18,7.90
2008,04,13,20,19,7.80
2008,04,13,20,20,7.80
2008,04,13,20,21,7.80
2008,04,13,20,22,7.70
2008,04,13,20,23,7.70
2008,04,13,20,24,7.60
2008,04,13,20,25,7.60
2008,04,13,20,26,7.50
2008,04,13,20,27,7.50
2008,04,13,20,28,7.40
2008,04,13,20,29,7.40
2008,04,13,20,30,7.40
2008,04,13,20,31,7.30
2008,04,13,20,32,7.30
2008,04,13,20,33,7.20
2008,04,13,20,34,7.20
2008,04,13,20,35,7.10
2008,04,13,20,36,7.00
2008,04,13,20,37,7.00
2008,04,13,20,38,6.90
2008,04,13,20,39,6.90
2008,04,13,20,40,6.80
2008,04,13,20,41,6.80
2008,04,13,20,42,6.80
2008,04,13,20,43,6.70
2008,04,13,20,44,6.70
2008,04,13,20,45,6.70
2008,04,13,20,46,6.70
2008,04,13,20,47,6.70
2008,04,13,20,48,6.70
2008,04,13,20,49,6.70
2008,04,13,20,50,6.70
2008,04,13,20,51,6.70
2008,04,13,20,52,6.70
2008,04,13,20,53,6.60
2008,04,13,20,54,6.60
2008,04,13,20,55,6.60
2008,04,13,20,56,6.50
2008,04,13,20,57,6.50
2008,04,13,20,58,6.50
2008,04,13,20,59,6.40
2008,04,13,21,00,6.40
2008,04,13,21,01,6.40
2008,04,13,21,02,6.40
2008,04,13,21,03,6.40
2008,04,13,21,04,6.40
2008,04,13,21,05,6.40
2008,04,13,21,06,6.40
2008,04,13,21,07,6.40
2008,04,13,21,08,6.40
2008,04,13,21,09,6.40
2008,04,13,21,10,6.40
2008,04,13,21,11,6.30
2008,04,13,21,12,6.30
2008,04,13,21,13,6.30
2008,04,13,21,14,6.30
2008,04,13,21,15,6.30
2008,04,13,21,16,6.30
2008,04,13,21,17,6.20
2008,04,13,21,18,6.20
2008,04,13,21,19,6.10
2008,04,13,21,20,6.10
2008,04,13,21,21,6.00
2008,04,13,21,22,6.00
2008,04,13,21,23,5.90
2008,04,13,21,24,5.90
2008,04,13,21,25,5.90
2008,04,13,21,26,5.90
2008,04,13,21,27,5.80
2008,04,13,21,28,5.80
2008,04,13,21,29,5.70
2008,04,13,21,30,5.60
2008,04,13,21,31,5.60
2008,04,13,21,32,5.50
2008,04,13,21,33,5.50
2008,04,13,21,34,5.40
2008,04,13,21,35,5.40
2008,04,13,21,36,5.40
2008,04,13,21,37,5.40
2008,04,13,21,38,5.50
2008,04,13,21,39,5.60
2008,04,13,21,40,5.60
2008,04,13,21,41,5.70
2008,04,13,21,42,5.70
2008,04,13,21,43,5.70
2008,04,13,21,44,5.70
2008,04,13,21,45,5.60
2008,04,13,21,46,5.60
2008,04,13,21,47,5.70
2008,04,13,21,48,5.70
2008,04,13,21,49,5.80
2008,04,13,21,50,5.80
2008,04,13,21,51,5.90
2008,04,13,21,52,5.90
2008,04,13,21,53,6.00
2008,04,13,21,54,6.00
2008,04,13,21,55,6.10
2008,04,13,21,56,6.20
2008,04,13,21,57,6.20
2008,04,13,21,58,6.20
2008,04,13,21,59,6.10
2008,04,13,22,00,6.10
2008,04,13,22,01,6.10
2008,04,13,22,02,6.10
2008,04,13,22,03,6.00
2008,04,13,22,04,6.00
2008,04,13,22,05,6.00
2008,04,13,22,06,6.00
2008,04,13,22,07,6.00
2008,04,13,22,08,6.00
2008,04,13,22,09,6.10
2008,04,13,22,10,6.10
2008,04,13,22,11,6.10
2008,04,13,22,12,6.20
2008,04,13,22,13,6.20
2008,04,13,22,14,6.10
2008,04,13,22,15,6.10
2008,04,13,22,16,6.10
2008,04,13,22,17,6.10
2008,04,13,22,18,6.10
2008,04,13,22,19,6.10
2008,04,13,22,20,6.10
2008,04,13,22,21,6.10
2008,04,13,22,22,6.10
2008,04,13,22,23,6.10
2008,04,13,22,24,6.00
2008,04,13,22,25,6.10
2008,04,13,22,26,6.00
2008,04,13,22,27,6.00
2008,04,13,22,28,6.00
2008,04,13,22,29,5.90
2008,04,13,22,30,5.90
2008,04,13,22,31,5.90
2008,04,13,22,32,5.80
2008,04,13,22,33,5.80
2008,04,13,22,34,5.80
2008,04,13,22,35,5.70
2008,04,13,22,36,5.70
2008,04,13,22,37,5.70
2008,04,13,22,38,5.60
2008,04,13,22,39,5.60
2008,04,13,22,40,5.60
2008,04,13,22,41,5.50
2008,04,13,22,42,5.40
2008,04,13,22,43,5.40
2008,04,13,22,44,5.40
2008,04,13,22,45,5.40
2008,04,13,22,46,5.40
2008,04,13,22,47,5.40
2008,04,13,22,48,5.40
2008,04,13,22,49,5.40
2008,04,13,22,50,5.40
2008,04,13,22,51,5.40
2008,04,13,22,52,5.30
2008,04,13,22,53,5.30
2008,04,13,22,54,5.30
2008,04,13,22,55,5.30
2008,04,13,22,56,5.30